Regional Weather Roundup
Issued by NWS

Home | Current Version | Previous Version | Text Only | Print | Product List | Glossary Off
Versions: 1 2 3 4 5 6 7 8 9 10 11 12 13 14 15 16 17 18 19 20 21 22 23 24 25 26 27 28 29 30 31 32 33 34 35 36 37 38 39 40 41 42 43 44 45 46 47 48 49 50

000
ASUS43 KIND 300809
RWRIN

WEATHER ROUNDUP FOR INDIANA
NATIONAL WEATHER SERVICE INDIANAPOLIS IN
400 AM EDT WED JUL 30 2014

NOTE: "FAIR" INDICATES FEW OR NO CLOUDS BELOW 12,000 FEET WITH NO
SIGNIFICANT WEATHER AND/OR OBSTRUCTIONS TO VISIBILITY.

* - STATION DOES NOT REPORT WEATHER SUCH AS PRECIPITATION OR FOG.

+ - STATION NOT QUALITY CONTROLLED BY THE NATIONAL WEATHER SERVICE.
    USE DATA WITH CAUTION...ESPECIALLY DEWPOINT AND RELATIVE
    HUMIDITY OBSERVATIONS.

INZ001>003-010>013-019-020-300900-
NORTHWEST INDIANA

CITY           SKY/WX    TMP DP  RH WIND       PRES   REMARKS
GARY /AIRPORT/ CLEAR     59  57  94 CALM      30.02S
KNOX *+        MOCLDY    56  54  91 CALM      29.99S
LA PORTE +     CLEAR     57  55  93 CALM      30.01R
MICHIGAN CITY+ CLEAR     55  55 100 S3        30.00S FOG
MONTICELLO +   MOCLDY    57  56  99 CALM      30.00F
RENSSELAER +   CLEAR     55  55 100 CALM      30.01F
VALPARAISO     PTCLDY    59  57  93 W5        30.01S

$$

LMZ046-743>745-300900-
SOUTHERN LAKE MICHIGAN

STATION/POSITION TIME  TEMP WIND        PRES
                       AIR  DIR/SP/G
                 (UTC) (F)  (DEG/KT/KT) (MB)
MICHIGAN CITY    0800   63  190/  6/  7   N/A

$$

INZ004-005-014>016-021>024-300900-
NORTH CENTRAL INDIANA

CITY           SKY/WX    TMP DP  RH WIND       PRES   REMARKS
GOSHEN         CLOUDY    61  58  90 S3        29.99S
LOGANSPORT +   CLEAR     55  54  94 CALM      30.02F FOG
PERU/GRISSOM   PTCLDY    56  56 100 SW5       30.01F
ROCHESTER +    PTCLDY    61  59  94 SW6       30.01F
SOUTH BEND     MOCLDY    60  57  89 SW3       30.00R
WARSAW +       MOCLDY    59  59 100 CALM      30.00S

$$

INZ006>009-017-018-025>027-300900-
NORTHEAST INDIANA

CITY           SKY/WX    TMP DP  RH WIND       PRES   REMARKS
ANGOLA *+      MOCLDY    57  48  72 CALM      29.99S
AUBURN +       MOCLDY    59  55  88 W5        30.01S
FORT WAYNE     PTCLDY    58  57  97 CALM      30.02R FOG
HUNTINGTON +   PTCLDY    57  56  97 CALM      30.01R

$$

INZ028-029-035-036-043>045-051>053-300900-
WEST CENTRAL INDIANA

CITY           SKY/WX    TMP DP  RH WIND       PRES   REMARKS
GREENCASTLE +  CLEAR     55  55 100 CALM      30.05F
LAFAYETTE      RAIN      58  58 100 CALM      30.02S
TERRE HAUTE    CLEAR     58  55  90 CALM      30.05F

$$

INZ030>032-037>040-046>048-054>057-064-065-300900-
CENTRAL INDIANA

CITY           SKY/WX    TMP DP  RH WIND       PRES   REMARKS
CP ATTERBURY +   N/A     55  54  94 CALM      30.05S FOG
INDIANAPOLIS   PTCLDY    59  57  93 SW7       30.03F
-EAGLE CREEK   CLEAR     60  57  89 CALM      30.03F
KOKOMO *+      CLEAR     57  55  94 SW7       30.02S
MARION +       PTCLDY    56  55  97 CALM      30.02F
MT COMFORT *+  CLEAR     57 N/A N/A SW3       30.04S
SHELBYVILLE    PTCLDY    60  57  89 S3        30.04S FOG
ZIONSVILLE +   CLEAR     58  55  90 CALM      30.04S FOG

$$

INZ033-034-041-042-049-050-058-059-300900-
EAST CENTRAL INDIANA

CITY           SKY/WX    TMP DP  RH WIND       PRES   REMARKS
MUNCIE         PTCLDY    59  56  89 SW5       30.03S

$$

INZ060-061-067>069-081>083-085>088-300900-
SOUTHWEST INDIANA

CITY           SKY/WX    TMP DP  RH WIND       PRES   REMARKS
EVANSVILLE     CLEAR     63  57  81 SW3       30.08S
WASHINGTON +   CLEAR     56  56  99 CALM      30.06S

$$

INZ062-063-066-070>080-084-089>092-300900-
SOUTH CENTRAL AND SOUTHEAST INDIANA

CITY           SKY/WX    TMP DP  RH WIND       PRES   REMARKS
BLOOMINGTON    CLEAR     57  54  89 CALM      30.06S

$$




USA.gov is the U.S. government's official web portal to all federal, state and local government web resources and services.